| time (UTC) | temp F | wind direction | speed MPH | gust MPH | rain 1hr in | rain 24hr in | rain mn in | humidity % | barometer mb |
| 20260505124059 | 51 | 14 | 8.0 | 13.0 | 0.00 | 0.07 | 0.06 | 10 | 1010.8 |
| 20260505121057 | 52 | 4 | 6.0 | 10.0 | 0.00 | 0.07 | 0.06 | 10 | 1010.7 |
| 20260505120057 | 52 | 10 | 6.0 | 10.0 | 0.00 | 0.07 | 0.06 | 10 | 1010.8 |
| 20260505115055 | 51 | 352 | 6.0 | 9.0 | 0.00 | 0.07 | 0.06 | 10 | 1010.8 |
| 20260505113058 | 51 | 8 | 7.0 | 10.0 | 0.00 | 0.07 | 0.06 | 10 | 1011.0 |
| 20260505112058 | 52 | 18 | 6.0 | 8.0 | 0.00 | 0.07 | 0.06 | 10 | 1011.1 |
| 20260505111059 | 52 | 359 | 6.0 | 11.0 | 0.00 | 0.07 | 0.06 | 10 | 1011.1 |
| 20260505102055 | 51 | 6 | 5.0 | 9.0 | 0.00 | 0.07 | 0.06 | 10 | 1011.4 |
| 20260505101059 | 52 | 19 | 6.0 | 10.0 | 0.00 | 0.07 | 0.06 | 10 | 1011.3 |
| 20260505100056 | 52 | 21 | 7.0 | 9.0 | 0.00 | 0.07 | 0.06 | 10 | 1011.3 |
| 20260505095058 | 51 | 14 | 7.0 | 9.0 | 0.00 | 0.07 | 0.06 | 10 | 1011.4 |
| 20260505094058 | 52 | 14 | 6.0 | 11.0 | 0.01 | 0.07 | 0.06 | 10 | 1011.4 |
| 20260505093057 | 52 | 18 | 5.0 | 9.0 | 0.01 | 0.07 | 0.06 | 10 | 1011.4 |
| 20260505092057 | 51 | 15 | 6.0 | 9.0 | 0.01 | 0.07 | 0.06 | 10 | 1011.4 |
| 20260505091058 | 51 | 9 | 5.0 | 7.0 | 0.01 | 0.07 | 0.06 | 10 | 1011.4 |
| 20260505090055 | 51 | 5 | 6.0 | 8.0 | 0.01 | 0.07 | 0.06 | 10 | 1011.4 |
| 20260505085057 | 51 | 7 | 5.0 | 9.0 | 0.01 | 0.07 | 0.06 | 10 | 1011.4 |
| 20260505084057 | 51 | 6 | 5.0 | 9.0 | 0.02 | 0.07 | 0.06 | 10 | 1011.4 |
| 20260505083057 | 51 | 5 | 5.0 | 8.0 | 0.01 | 0.06 | 0.05 | 10 | 1011.5 |
| 20260505082058 | 51 | 354 | 6.0 | 8.0 | 0.01 | 0.06 | 0.05 | 10 | 1011.5 |
| 20260505080057 | 52 | 355 | 6.0 | 9.0 | 0.01 | 0.06 | 0.05 | 10 | 1011.6 |
| 20260505075056 | 52 | 3 | 6.0 | 8.0 | 0.01 | 0.06 | 0.05 | 10 | 1011.6 |
| 20260505074058 | 52 | 4 | 6.0 | 8.0 | 0.01 | 0.06 | 0.05 | 10 | 1011.5 |
| 20260505073058 | 52 | 1 | 5.0 | 8.0 | 0.01 | 0.06 | 0.04 | 10 | 1011.5 |
| 20260505072056 | 52 | 2 | 4.0 | 6.0 | 0.01 | 0.06 | 0.04 | 10 | 1011.5 |
| 20260505071059 | 52 | 29 | 5.0 | 7.0 | 0.01 | 0.06 | 0.04 | 10 | 1011.6 |
| 20260505070052 | 52 | 31 | 5.0 | 7.0 | 0.01 | 0.06 | 0.04 | 10 | 1011.7 |
| 20260505065057 | 52 | 28 | 5.0 | 8.0 | 0.01 | 0.06 | 0.04 | 10 | 1011.7 |
| 20260505064054 | 53 | 10 | 5.0 | 8.0 | 0.01 | 0.06 | 0.04 | 10 | 1011.7 |
| 20260505063055 | 53 | 5 | 5.0 | 7.0 | 0.01 | 0.06 | 0.04 | 10 | 1011.7 |
| 20260505062052 | 53 | 3 | 4.0 | 9.0 | 0.00 | 0.05 | 0.03 | 10 | 1011.7 |
| 20260505061054 | 53 | 3 | 5.0 | 8.0 | 0.01 | 0.05 | 0.03 | 10 | 1011.6 |
| 20260505060055 | 53 | 357 | 5.0 | 8.0 | 0.01 | 0.05 | 0.03 | 10 | 1011.6 |
| 20260505055055 | 53 | 353 | 6.0 | 9.0 | 0.02 | 0.05 | 0.03 | 10 | 1011.6 |
| 20260505054058 | 53 | 352 | 5.0 | 7.0 | 0.02 | 0.05 | 0.03 | 10 | 1011.6 |
| 20260505053055 | 53 | 349 | 4.0 | 6.0 | 0.03 | 0.05 | 0.03 | 10 | 1011.6 |
| 20260505052054 | 53 | 341 | 3.0 | 4.0 | 0.03 | 0.05 | 0.03 | 10 | 1011.6 |
| 20260505051057 | 53 | 341 | 3.0 | 4.0 | 0.03 | 0.05 | 0.03 | 10 | 1011.5 |
| 20260505041054 | 52 | 260 | 1.0 | 2.0 | 0.00 | 0.02 | 0.00 | 10 | 1011.7 |
| 20260505040056 | 52 | 253 | 2.0 | 3.0 | 0.00 | 0.02 | 0.00 | 10 | 1011.8 |
| 20260505035056 | 52 | 253 | 2.0 | 3.0 | 0.00 | 0.02 | 0.00 | 10 | 1011.9 |
| 20260505034056 | 52 | 220 | 3.0 | 4.0 | 0.00 | 0.02 | 0.00 | 10 | 1011.9 |
| 20260505033057 | 52 | 250 | 2.0 | 3.0 | 0.00 | 0.02 | 0.00 | 10 | 1011.9 |
| 20260505032055 | 52 | 249 | 2.0 | 2.0 | 0.00 | 0.02 | 0.00 | 10 | 1012.0 |
| 20260505031056 | 52 | 155 | 1.0 | 2.0 | 0.00 | 0.02 | 0.00 | 10 | 1012.2 |
| 20260505030055 | 52 | 149 | 2.0 | 2.0 | 0.00 | 0.02 | 0.00 | 10 | 1012.3 |
| 20260505025056 | 52 | 129 | 2.0 | 3.0 | 0.00 | 0.02 | 0.00 | 10 | 1012.5 |
| 20260505024058 | 52 | 120 | 2.0 | 4.0 | 0.00 | 0.02 | 0.00 | 10 | 1012.5 |
| 20260505023058 | 52 | 76 | 2.0 | 4.0 | 0.00 | 0.02 | 0.00 | 10 | 1012.4 |
| 20260505022055 | 52 | 328 | 0.0 | 0.0 | 0.00 | 0.02 | 0.00 | 10 | 1012.4 |
| 20260505020057 | 52 | 331 | 0.0 | 2.0 | 0.00 | 0.02 | 0.00 | 10 | 1012.4 |
| 20260505015056 | 52 | 335 | 1.0 | 3.0 | 0.00 | 0.02 | 0.00 | 10 | 1012.3 |
| 20260505014056 | 52 | 330 | 1.0 | 2.0 | 0.00 | 0.02 | 0.00 | 10 | 1012.3 |
| 20260505013053 | 52 | 332 | 1.0 | 2.0 | 0.00 | 0.02 | 0.00 | 10 | 1012.4 |
| 20260505011054 | 51 | 22 | 0.0 | 0.0 | 0.00 | 0.02 | 0.00 | 10 | 1012.5 |
| 20260505005059 | 51 | 339 | 1.0 | 2.0 | 0.00 | 0.02 | 0.00 | 10 | 1012.6 |
| 20260505004055 | 51 | 276 | 2.0 | 2.0 | 0.00 | 0.02 | 0.00 | 10 | 1012.7 |
| 20260505003058 | 51 | 260 | 2.0 | 3.0 | 0.00 | 0.02 | 0.00 | 10 | 1012.7 |
| 20260505002054 | 51 | 215 | 2.0 | 3.0 | 0.00 | 0.02 | 0.00 | 10 | 1012.9 |
| 20260505001057 | 51 | 158 | 2.0 | 2.0 | 0.00 | 0.02 | 0.00 | 10 | 1013.1 |
| 20260504235107 | 51 | 165 | 1.0 | 2.0 | 0.00 | 0.02 | 0.00 | 10 | 1013.2 |
| 20260504232105 | 50 | 208 | 1.0 | 2.0 | 0.00 | 0.02 | 0.00 | 10 | 1013.4 |
| 20260504231106 | 50 | 189 | 1.0 | 1.0 | 0.00 | 0.02 | 0.00 | 10 | 1013.4 |
| 20260504225109 | 50 | 228 | 0.0 | 0.0 | 0.00 | 0.02 | 0.00 | 10 | 1013.6 |
| 20260504224107 | 51 | 220 | 1.0 | 1.0 | 0.00 | 0.02 | 0.00 | 10 | 1013.6 |
| 20260504221107 | 51 | 171 | 0.0 | 0.0 | 0.00 | 0.02 | 0.00 | 99 | 1013.9 |
| 20260504220109 | 51 | 183 | 1.0 | 2.0 | 0.00 | 0.02 | 0.00 | 99 | 1014.0 |
| 20260504215112 | 51 | 203 | 0.0 | 1.0 | 0.00 | 0.02 | 0.02 | 99 | 1014.0 |
| 20260504214115 | 51 | 187 | 1.0 | 1.0 | 0.00 | 0.02 | 0.02 | 99 | 1014.1 |
| 20260504213115 | 51 | 153 | 2.0 | 2.0 | 0.00 | 0.02 | 0.02 | 99 | 1014.2 |
| 20260504212115 | 51 | 157 | 1.0 | 1.0 | 0.00 | 0.02 | 0.02 | 99 | 1014.2 |
| 20260504211109 | 51 | 161 | 2.0 | 2.0 | 0.00 | 0.02 | 0.02 | 99 | 1014.2 |
| 20260504210112 | 51 | 150 | 2.0 | 2.0 | 0.00 | 0.02 | 0.02 | 98 | 1014.3 |
| 20260504205112 | 51 | 149 | 2.0 | 2.0 | 0.00 | 0.02 | 0.02 | 98 | 1014.3 |
| 20260504204112 | 52 | 171 | 2.0 | 4.0 | 0.00 | 0.02 | 0.02 | 98 | 1014.4 |
| 20260504203112 | 52 | 169 | 3.0 | 3.0 | 0.00 | 0.02 | 0.02 | 98 | 1014.4 |
| 20260504202127 | 52 | 169 | 3.0 | 3.0 | 0.00 | 0.02 | 0.02 | 98 | 1014.3 |
| 20260504201116 | 52 | 161 | 2.0 | 3.0 | 0.00 | 0.02 | 0.02 | 98 | 1014.3 |
| 20260504200112 | 52 | 155 | 3.0 | 3.0 | 0.00 | 0.02 | 0.02 | 98 | 1014.3 |
| 20260504195110 | 52 | 164 | 3.0 | 4.0 | 0.00 | 0.02 | 0.02 | 97 | 1014.1 |
| 20260504194108 | 52 | 156 | 3.0 | 3.0 | 0.00 | 0.02 | 0.02 | 97 | 1014.0 |
| 20260504193107 | 52 | 141 | 3.0 | 3.0 | 0.00 | 0.02 | 0.02 | 97 | 1014.0 |
| 20260504192110 | 52 | 148 | 2.0 | 3.0 | 0.00 | 0.02 | 0.02 | 97 | 1013.9 |
| 20260504191111 | 53 | 143 | 3.0 | 4.0 | 0.00 | 0.02 | 0.02 | 96 | 1013.8 |
| 20260504190110 | 53 | 131 | 2.0 | 4.0 | 0.00 | 0.02 | 0.02 | 96 | 1013.9 |
| 20260504185110 | 53 | 127 | 2.0 | 3.0 | 0.00 | 0.02 | 0.02 | 95 | 1013.8 |
| 20260504184105 | 54 | 121 | 3.0 | 4.0 | 0.00 | 0.02 | 0.02 | 94 | 1013.7 |
| 20260504182102 | 56 | 149 | 2.0 | 3.0 | 0.00 | 0.02 | 0.02 | 92 | 1013.4 |
| 20260504181107 | 56 | 156 | 3.0 | 5.0 | 0.00 | 0.02 | 0.02 | 92 | 1013.5 |
| 20260504175104 | 56 | 156 | 5.0 | 8.0 | 0.00 | 0.02 | 0.02 | 92 | 1013.7 |
| 20260504174103 | 57 | 152 | 5.0 | 7.0 | 0.00 | 0.02 | 0.02 | 92 | 1013.6 |
| 20260504173106 | 57 | 139 | 3.0 | 6.0 | 0.00 | 0.02 | 0.02 | 93 | 1013.6 |
| 20260504172103 | 57 | 143 | 3.0 | 5.0 | 0.00 | 0.02 | 0.02 | 93 | 1013.7 |
| 20260504171104 | 57 | 129 | 3.0 | 4.0 | 0.00 | 0.02 | 0.02 | 92 | 1013.7 |
| 20260504151103 | 59 | 132 | 4.0 | 5.0 | 0.02 | 0.02 | 0.02 | 93 | 1013.9 |
| 20260504140109 | 59 | 136 | 2.0 | 4.0 | 0.00 | 0.00 | 0.00 | 88 | 1014.3 |